When you browse on this site, cookies collect data to enhance your experience and personalize the content and advertising you see.
Visit our Privacy Policy to learn more. By continuing to use the site, you agree to this use of cookies and data.
  • In Austria
  • List of Countries
  • For 7 days
  • Water Temperature
  • Weather Map
  • News
  • Weather Widgets
  • user-avatar
    Login

    Hourly Weather Zorya

    Today, 14 November, Thursday

    Time Temperature Precipitation Wind Pressure Humidity
    00:00 +9°C° 0 mm 6 mps 760 mmHg 73%
    01:00 +8°C° 0 mm 6 mps 760 mmHg 74%
    02:00 +8°C° 0 mm 6 mps 760 mmHg 76%
    03:00 +7°C° 0 mm 6 mps 760 mmHg 78%
    04:00 +7°C° 0 mm 6 mps 759 mmHg 79%
    05:00 +7°C° 0 mm 6 mps 759 mmHg 81%
    06:00 +7°C° 0 mm 6 mps 759 mmHg 80%
    07:00 +7°C° 0 mm 6 mps 759 mmHg 78%
    08:00 +6°C° 0 mm 7 mps 759 mmHg 75%
    09:00 +9°C° 0 mm 7 mps 759 mmHg 70%
    10:00 +10°C° 0 mm 7 mps 759 mmHg 64%
    11:00 +12°C° 0 mm 8 mps 759 mmHg 58%
    12:00 +12°C° 0 mm 8 mps 759 mmHg 55%
    13:00 +14°C° 0 mm 7 mps 758 mmHg 53%
    14:00 +14°C° 0 mm 7 mps 758 mmHg 50%
    15:00 +12°C° 0 mm 7 mps 758 mmHg 55%
    16:00 +10°C° 0 mm 6 mps 758 mmHg 60%
    17:00 +9°C° 0 mm 5 mps 758 mmHg 65%
    18:00 +9°C° 0 mm 5 mps 758 mmHg 65%
    19:00 +8°C° 0 mm 5 mps 758 mmHg 66%
    20:00 +8°C° 0 mm 5 mps 758 mmHg 67%
    21:00 +8°C° 0 mm 5 mps 758 mmHg 67%
    22:00 +8°C° 0 mm 5 mps 758 mmHg 67%
    23:00 +8°C° 0 mm 5 mps 758 mmHg 66%

    Tomorrow, 15 November, Friday

    Time Temperature Precipitation Wind Pressure Humidity
    00:00 +8°C° 0 mm 5 mps 758 mmHg 67%
    01:00 +8°C° 0 mm 5 mps 759 mmHg 67%
    02:00 +8°C° 0 mm 5 mps 759 mmHg 68%
    03:00 +7°C° 0 mm 5 mps 759 mmHg 69%
    04:00 +7°C° 0 mm 5 mps 758 mmHg 71%
    05:00 +7°C° 0 mm 5 mps 758 mmHg 73%
    06:00 +7°C° 0 mm 5 mps 759 mmHg 73%
    07:00 +7°C° 0 mm 5 mps 759 mmHg 73%
    08:00 +7°C° 0 mm 5 mps 759 mmHg 73%
    09:00 +9°C° 0 mm 5 mps 760 mmHg 68%
    10:00 +10°C° 0 mm 5 mps 760 mmHg 63%
    11:00 +13°C° 0 mm 5 mps 760 mmHg 58%
    12:00 +13°C° 0 mm 4 mps 760 mmHg 56%
    13:00 +14°C° 0 mm 4 mps 760 mmHg 54%
    14:00 +16°C° 0 mm 3 mps 760 mmHg 53%
    15:00 +14°C° 0 mm 3 mps 760 mmHg 57%
    16:00 +13°C° 0 mm 3 mps 761 mmHg 60%
    17:00 +12°C° 0 mm 3 mps 761 mmHg 64%
    18:00 +11°C° 0 mm 3 mps 761 mmHg 66%
    19:00 +10°C° 0 mm 4 mps 761 mmHg 68%
    20:00 +10°C° 0 mm 4 mps 762 mmHg 70%
    21:00 +9°C° 0 mm 3 mps 762 mmHg 72%
    22:00 +9°C° 0 mm 3 mps 762 mmHg 74%
    23:00 +8°C° 0 mm 2 mps 762 mmHg 76%

    Day after tomorrow, 16 November, Saturday

    Time Temperature Precipitation Wind Pressure Humidity
    00:00 +8°C° 0 mm 2 mps 762 mmHg 78%
    01:00 +8°C° 0 mm 2 mps 763 mmHg 79%
    02:00 +8°C° 0 mm 2 mps 763 mmHg 80%
    03:00 +8°C° 0 mm 2 mps 763 mmHg 82%
    04:00 +7°C° 0 mm 3 mps 763 mmHg 83%
    05:00 +7°C° 0 mm 3 mps 763 mmHg 84%
    06:00 +7°C° 0 mm 3 mps 763 mmHg 82%
    07:00 +7°C° 0 mm 3 mps 764 mmHg 81%
    08:00 +8°C° 0 mm 3 mps 764 mmHg 79%
    09:00 +9°C° 0 mm 3 mps 764 mmHg 72%
    10:00 +11°C° 0 mm 3 mps 764 mmHg 64%
    11:00 +12°C° 0 mm 3 mps 764 mmHg 57%
    12:00 +13°C° 0 mm 3 mps 764 mmHg 54%
    13:00 +15°C° 0 mm 2 mps 764 mmHg 51%
    14:00 +16°C° 0 mm 2 mps 764 mmHg 48%
    15:00 +13°C° 0 mm 3 mps 764 mmHg 52%
    16:00 +12°C° 0 mm 3 mps 764 mmHg 55%
    17:00 +11°C° 0 mm 3 mps 764 mmHg 59%
    18:00 +10°C° 0 mm 3 mps 764 mmHg 61%
    19:00 +9°C° 0 mm 3 mps 764 mmHg 63%
    20:00 +8°C° 0 mm 3 mps 765 mmHg 66%
    21:00 +8°C° 0 mm 3 mps 765 mmHg 67%
    22:00 +8°C° 0 mm 3 mps 765 mmHg 69%
    23:00 +7°C° 0 mm 2 mps 765 mmHg 71%

    17 November, Sunday

    Time Temperature Precipitation Wind Pressure Humidity
    00:00 +7°C° 0 mm 2 mps 765 mmHg 72%
    01:00 +7°C° 0 mm 2 mps 765 mmHg 73%
    02:00 +6°C° 0 mm 2 mps 765 mmHg 74%
    03:00 +5°C° 0 mm 3 mps 764 mmHg 75%
    04:00 +5°C° 0 mm 3 mps 764 mmHg 76%
    05:00 +5°C° 0 mm 3 mps 764 mmHg 77%
    06:00 +5°C° 0 mm 3 mps 764 mmHg 77%
    07:00 +5°C° 0 mm 3 mps 764 mmHg 76%
    08:00 +5°C° 0 mm 3 mps 765 mmHg 76%
    09:00 +7°C° 0 mm 4 mps 764 mmHg 69%
    10:00 +8°C° 0 mm 4 mps 764 mmHg 63%
    11:00 +11°C° 0 mm 4 mps 764 mmHg 57%
    12:00 +12°C° 0 mm 4 mps 764 mmHg 55%
    13:00 +12°C° 0 mm 4 mps 764 mmHg 54%
    14:00 +13°C° 0 mm 4 mps 763 mmHg 52%
    15:00 +11°C° 0 mm 4 mps 763 mmHg 58%
    16:00 +10°C° 0 mm 4 mps 763 mmHg 63%
    17:00 +8°C° 0 mm 4 mps 763 mmHg 69%
    18:00 +7°C° 0 mm 4 mps 763 mmHg 73%
    19:00 +7°C° 0 mm 3 mps 763 mmHg 77%
    20:00 +7°C° 0 mm 3 mps 763 mmHg 81%
    21:00 +5°C° 0 mm 3 mps 763 mmHg 83%
    22:00 +5°C° 0 mm 3 mps 763 mmHg 86%
    23:00 +4°C° 0 mm 3 mps 762 mmHg 88%

    18 November, Monday

    Time Temperature Precipitation Wind Pressure Humidity
    00:00 +4°C° 0 mm 3 mps 762 mmHg 88%
    01:00 +4°C° 0 mm 3 mps 762 mmHg 88%
    02:00 +4°C° 0 mm 3 mps 762 mmHg 88%
    03:00 +4°C° 0 mm 3 mps 762 mmHg 89%
    04:00 +4°C° 0 mm 3 mps 762 mmHg 90%
    05:00 +4°C° 0 mm 3 mps 762 mmHg 90%
    06:00 +4°C° 0 mm 4 mps 762 mmHg 90%
    07:00 +5°C° 0 mm 4 mps 762 mmHg 90%
    08:00 +5°C° 0 mm 4 mps 762 mmHg 89%
    09:00 +7°C° 0 mm 4 mps 762 mmHg 82%
    10:00 +8°C° 0 mm 4 mps 762 mmHg 74%
    11:00 +11°C° 0 mm 4 mps 762 mmHg 67%
    12:00 +12°C° 0 mm 3 mps 762 mmHg 64%
    13:00 +12°C° 0 mm 3 mps 761 mmHg 62%
    14:00 +13°C° 0 mm 3 mps 761 mmHg 59%
    15:00 +13°C° 0 mm 2 mps 761 mmHg 66%
    16:00 +12°C° 0 mm 2 mps 761 mmHg 72%
    17:00 +11°C° 0 mm 1 mps 761 mmHg 78%
    18:00 +10°C° 0 mm 1 mps 762 mmHg 81%
    19:00 +9°C° 0 mm 2 mps 762 mmHg 83%
    20:00 +9°C° 0 mm 2 mps 762 mmHg 85%
    21:00 +8°C° 0 mm 2 mps 762 mmHg 87%
    22:00 +8°C° 0 mm 2 mps 762 mmHg 89%
    23:00 +8°C° 0 mm 2 mps 762 mmHg 91%

    19 November, Tuesday

    Time Temperature Precipitation Wind Pressure Humidity
    00:00 +7°C° 0 mm 2 mps 762 mmHg 91%
    01:00 +7°C° 0 mm 2 mps 762 mmHg 91%
    02:00 +7°C° 0 mm 2 mps 762 mmHg 92%
    03:00 +7°C° 0 mm 2 mps 762 mmHg 92%
    04:00 +7°C° 0 mm 2 mps 762 mmHg 91%
    05:00 +7°C° 0 mm 2 mps 762 mmHg 91%
    06:00 +8°C° 0 mm 2 mps 763 mmHg 90%
    07:00 +8°C° 0 mm 2 mps 763 mmHg 90%
    08:00 +8°C° 0 mm 2 mps 763 mmHg 90%
    09:00 +9°C° 0 mm 2 mps 763 mmHg 85%
    10:00 +10°C° 0 mm 2 mps 763 mmHg 80%
    11:00 +12°C° 0 mm 2 mps 763 mmHg 75%
    12:00 +12°C° 0 mm 2 mps 763 mmHg 73%
    13:00 +13°C° 0 mm 2 mps 763 mmHg 70%
    14:00 +14°C° 0 mm 2 mps 762 mmHg 68%
    15:00 +13°C° 0 mm 2 mps 762 mmHg 70%
    16:00 +12°C° 0 mm 2 mps 762 mmHg 72%
    17:00 +11°C° 0 mm 3 mps 762 mmHg 75%
    18:00 +11°C° 0 mm 3 mps 762 mmHg 74%
    19:00 +11°C° 0 mm 3 mps 762 mmHg 73%
    20:00 +11°C° 0 mm 3 mps 763 mmHg 72%
    21:00 +11°C° 0 mm 3 mps 763 mmHg 73%
    22:00 +11°C° 0 mm 3 mps 763 mmHg 73%
    23:00 +11°C° 0 mm 3 mps 763 mmHg 73%
    Show more